| time (UTC) | temp F | wind direction | speed MPH | gust MPH | rain 1hr in | rain 24hr in | rain mn in | humidity % | barometer mb |
| 20260901222309 | 50 | 127 | 0.0 | 0.0 | 0.00 | 0.00 | 0.00 | 99 | 1020.7 |
| 20260901220808 | 48 | 128 | 0.0 | 2.0 | 0.00 | 0.00 | 0.00 | 96 | 1020.8 |
| 20260901215308 | 50 | 128 | 0.0 | 0.0 | 0.00 | 0.00 | 0.00 | 95 | 1020.9 |
| 20260901213809 | 50 | 128 | 0.0 | 0.0 | 0.00 | 0.00 | 0.00 | 96 | 1020.8 |
| 20260901212309 | 51 | 128 | 0.0 | 0.0 | 0.00 | 0.00 | 0.00 | 95 | 1020.6 |
| 20260901210808 | 51 | 129 | 0.0 | 0.0 | 0.00 | 0.00 | 0.00 | 96 | 1020.7 |
| 20260901205308 | 51 | 128 | 0.0 | 0.0 | 0.00 | 0.00 | 0.00 | 95 | 1020.5 |
| 20260901203807 | 53 | 128 | 0.0 | 2.0 | 0.00 | 0.00 | 0.00 | 96 | 1020.4 |
| 20260901202306 | 51 | 123 | 0.0 | 0.0 | 0.00 | 0.00 | 0.00 | 94 | 1020.4 |
| 20260901200805 | 53 | 112 | 0.0 | 2.0 | 0.00 | 0.00 | 0.00 | 96 | 1020.3 |
| 20260901195306 | 53 | 127 | 0.0 | 2.0 | 0.00 | 0.00 | 0.00 | 92 | 1020.2 |
| 20260901193804 | 53 | 152 | 0.0 | 0.0 | 0.00 | 0.00 | 0.00 | 89 | 1020.3 |
| 20260901192301 | 57 | 157 | 0.0 | 0.0 | 0.00 | 0.00 | 0.00 | 85 | 1020.4 |
| 20260901190800 | 57 | 169 | 0.0 | 2.0 | 0.00 | 0.00 | 0.00 | 84 | 1020.4 |
| 20260901185259 | 57 | 328 | 0.0 | 2.0 | 0.00 | 0.00 | 0.00 | 81 | 1020.3 |
| 20260901183759 | 60 | 310 | 2.0 | 4.0 | 0.00 | 0.00 | 0.00 | 71 | 1020.2 |
| 20260901182258 | 64 | 306 | 4.0 | 6.0 | 0.00 | 0.00 | 0.00 | 66 | 1020.1 |
| 20260901180758 | 64 | 304 | 4.0 | 8.0 | 0.00 | 0.00 | 0.00 | 64 | 1020.1 |
| 20260901175258 | 66 | 298 | 4.0 | 8.0 | 0.00 | 0.00 | 0.00 | 61 | 1020.0 |
| 20260901173758 | 66 | 308 | 6.0 | 8.0 | 0.00 | 0.00 | 0.00 | 60 | 1019.9 |
| 20260901172257 | 66 | 312 | 6.0 | 11.0 | 0.00 | 0.00 | 0.00 | 57 | 1019.8 |
| 20260901170757 | 66 | 317 | 4.0 | 11.0 | 0.00 | 0.00 | 0.00 | 58 | 1019.8 |
| 20260901165256 | 66 | 293 | 8.0 | 13.0 | 0.00 | 0.00 | 0.00 | 56 | 1019.7 |
| 20260901163756 | 68 | 290 | 8.0 | 13.0 | 0.00 | 0.00 | 0.00 | 51 | 1019.6 |
| 20260901162255 | 68 | 270 | 8.0 | 13.0 | 0.00 | 0.00 | 0.00 | 53 | 1019.5 |
| 20260901160754 | 68 | 282 | 8.0 | 15.0 | 0.00 | 0.00 | 0.00 | 52 | 1019.5 |
| 20260901155253 | 68 | 293 | 6.0 | 11.0 | 0.00 | 0.00 | 0.00 | 49 | 1019.5 |
| 20260901153752 | 69 | 298 | 6.0 | 15.0 | 0.00 | 0.00 | 0.00 | 50 | 1019.4 |
| 20260901152252 | 69 | 267 | 8.0 | 17.0 | 0.00 | 0.00 | 0.00 | 47 | 1019.3 |
| 20260901150752 | 69 | 260 | 13.0 | 17.0 | 0.00 | 0.00 | 0.00 | 48 | 1019.3 |
| 20260901145251 | 69 | 263 | 11.0 | 17.0 | 0.00 | 0.00 | 0.00 | 47 | 1019.3 |
| 20260901143751 | 68 | 266 | 11.0 | 15.0 | 0.00 | 0.00 | 0.00 | 50 | 1019.3 |
| 20260901142250 | 69 | 282 | 8.0 | 17.0 | 0.00 | 0.00 | 0.00 | 49 | 1019.3 |
| 20260901140749 | 69 | 277 | 8.0 | 17.0 | 0.00 | 0.00 | 0.00 | 50 | 1019.2 |
| 20260901135248 | 71 | 281 | 11.0 | 17.0 | 0.00 | 0.00 | 0.00 | 50 | 1019.2 |
| 20260901133748 | 69 | 293 | 11.0 | 17.0 | 0.00 | 0.00 | 0.00 | 49 | 1019.1 |
| 20260901132247 | 68 | 279 | 11.0 | 22.0 | 0.00 | 0.00 | 0.00 | 53 | 1019.0 |
| 20260901130747 | 68 | 295 | 13.0 | 22.0 | 0.00 | 0.00 | 0.00 | 54 | 1019.1 |
| 20260901125246 | 68 | 275 | 11.0 | 17.0 | 0.00 | 0.00 | 0.00 | 54 | 1019.1 |
| 20260901123747 | 68 | 289 | 11.0 | 17.0 | 0.00 | 0.00 | 0.00 | 54 | 1019.1 |
| 20260901122245 | 69 | 286 | 8.0 | 17.0 | 0.00 | 0.00 | 0.00 | 55 | 1018.9 |
| 20260901120745 | 68 | 268 | 11.0 | 20.0 | 0.00 | 0.00 | 0.00 | 60 | 1018.9 |
| 20260901115244 | 69 | 278 | 11.0 | 17.0 | 0.00 | 0.00 | 0.00 | 58 | 1018.8 |
| 20260901113745 | 68 | 267 | 6.0 | 15.0 | 0.00 | 0.00 | 0.00 | 67 | 1018.8 |
| 20260901112244 | 66 | 237 | 8.0 | 17.0 | 0.00 | 0.00 | 0.00 | 72 | 1018.8 |
| 20260901110743 | 66 | 225 | 6.0 | 8.0 | 0.00 | 0.00 | 0.00 | 79 | 1018.9 |
| 20260901105243 | 64 | 241 | 8.0 | 13.0 | 0.00 | 0.00 | 0.00 | 82 | 1019.0 |
| 20260901103742 | 64 | 228 | 8.0 | 13.0 | 0.00 | 0.00 | 0.00 | 83 | 1019.0 |
| 20260901102242 | 64 | 206 | 6.0 | 13.0 | 0.00 | 0.00 | 0.00 | 86 | 1019.0 |
| 20260901100742 | 62 | 208 | 6.0 | 11.0 | 0.00 | 0.00 | 0.00 | 87 | 1019.0 |
| 20260901095241 | 62 | 212 | 8.0 | 11.0 | 0.00 | 0.00 | 0.00 | 86 | 1019.0 |
| 20260901093741 | 64 | 229 | 6.0 | 11.0 | 0.00 | 0.00 | 0.00 | 86 | 1018.9 |
| 20260901092240 | 62 | 227 | 6.0 | 11.0 | 0.00 | 0.00 | 0.00 | 87 | 1018.9 |
| 20260901090740 | 62 | 224 | 6.0 | 11.0 | 0.00 | 0.00 | 0.00 | 87 | 1018.7 |
| 20260901085239 | 62 | 219 | 6.0 | 11.0 | 0.00 | 0.00 | 0.00 | 88 | 1018.6 |
| 20260901083739 | 62 | 224 | 6.0 | 13.0 | 0.00 | 0.00 | 0.00 | 87 | 1018.5 |
| 20260901082238 | 62 | 224 | 6.0 | 13.0 | 0.00 | 0.00 | 0.00 | 87 | 1018.5 |
| 20260901080738 | 62 | 221 | 6.0 | 11.0 | 0.00 | 0.00 | 0.00 | 87 | 1018.3 |
| 20260901075238 | 62 | 226 | 6.0 | 11.0 | 0.00 | 0.00 | 0.00 | 86 | 1018.1 |
| 20260901073738 | 62 | 218 | 6.0 | 11.0 | 0.00 | 0.00 | 0.00 | 86 | 1018.0 |
| 20260901072237 | 60 | 223 | 6.0 | 11.0 | 0.00 | 0.00 | 0.00 | 88 | 1017.9 |
| 20260901070737 | 60 | 224 | 6.0 | 11.0 | 0.00 | 0.00 | 0.00 | 89 | 1017.9 |
| 20260901065236 | 59 | 216 | 4.0 | 8.0 | 0.00 | 0.00 | 0.00 | 91 | 1017.7 |
| 20260901063737 | 59 | 222 | 4.0 | 8.0 | 0.00 | 0.00 | 0.00 | 91 | 1017.7 |
| 20260901062236 | 59 | 214 | 6.0 | 8.0 | 0.00 | 0.00 | 0.00 | 93 | 1017.5 |
| 20260901060736 | 57 | 212 | 4.0 | 8.0 | 0.00 | 0.00 | 0.00 | 93 | 1017.5 |
| 20260901055235 | 57 | 214 | 4.0 | 8.0 | 0.00 | 0.00 | 0.00 | 93 | 1017.5 |
| 20260901053735 | 57 | 226 | 4.0 | 6.0 | 0.00 | 0.00 | 0.00 | 94 | 1017.1 |
| 20260901052234 | 57 | 226 | 4.0 | 6.0 | 0.00 | 0.00 | 0.00 | 94 | 1017.1 |
| 20260901050734 | 57 | 221 | 4.0 | 8.0 | 0.00 | 0.00 | 0.00 | 94 | 1017.0 |
| 20260901045234 | 57 | 226 | 4.0 | 6.0 | 0.00 | 0.00 | 0.00 | 94 | 1016.8 |
| 20260901043734 | 57 | 227 | 4.0 | 8.0 | 0.00 | 0.00 | 0.00 | 94 | 1016.8 |
| 20260901042233 | 57 | 227 | 4.0 | 8.0 | 0.00 | 0.00 | 0.00 | 94 | 1016.6 |
| 20260901040733 | 57 | 228 | 6.0 | 8.0 | 0.00 | 0.00 | 0.00 | 93 | 1016.7 |
| 20260901035230 | 57 | 225 | 6.0 | 8.0 | 0.00 | 0.00 | 0.00 | 93 | 1016.6 |
| 20260901033730 | 57 | 214 | 4.0 | 8.0 | 0.00 | 0.00 | 0.00 | 92 | 1016.4 |
| 20260901032229 | 57 | 217 | 4.0 | 8.0 | 0.00 | 0.00 | 0.00 | 92 | 1016.3 |
| 20260901030729 | 59 | 221 | 4.0 | 8.0 | 0.00 | 0.00 | 0.00 | 91 | 1016.3 |
| 20260901025228 | 57 | 226 | 4.0 | 8.0 | 0.00 | 0.00 | 0.00 | 91 | 1016.3 |
| 20260901023729 | 57 | 226 | 4.0 | 8.0 | 0.00 | 0.00 | 0.00 | 91 | 1016.3 |
| 20260901022228 | 59 | 220 | 6.0 | 11.0 | 0.00 | 0.00 | 0.00 | 90 | 1016.3 |
| 20260901020728 | 59 | 228 | 6.0 | 11.0 | 0.00 | 0.00 | 0.00 | 89 | 1016.2 |
| 20260901015226 | 59 | 220 | 6.0 | 11.0 | 0.00 | 0.00 | 0.00 | 89 | 1016.1 |
| 20260901013726 | 59 | 221 | 6.0 | 11.0 | 0.00 | 0.00 | 0.00 | 89 | 1016.2 |
| 20260901012224 | 59 | 225 | 6.0 | 11.0 | 0.00 | 0.00 | 0.00 | 89 | 1016.0 |
| 20260901010724 | 59 | 220 | 6.0 | 8.0 | 0.00 | 0.00 | 0.00 | 88 | 1015.9 |
| 20260901005224 | 59 | 218 | 6.0 | 11.0 | 0.00 | 0.00 | 0.00 | 88 | 1015.9 |
| 20260901003725 | 59 | 220 | 6.0 | 8.0 | 0.00 | 0.00 | 0.00 | 88 | 1015.8 |
| 20260901002223 | 59 | 221 | 6.0 | 8.0 | 0.00 | 0.00 | 0.00 | 89 | 1015.8 |
| 20260901000723 | 57 | 219 | 6.0 | 8.0 | 0.00 | 0.00 | 0.00 | 89 | 1015.8 |
| 20260831235224 | 57 | 213 | 4.0 | 8.0 | 0.00 | 0.00 | 0.00 | 89 | 1015.8 |
| 20260831233723 | 57 | 218 | 6.0 | 8.0 | 0.00 | 0.00 | 0.00 | 88 | 1015.7 |
| 20260831232222 | 57 | 219 | 4.0 | 8.0 | 0.00 | 0.00 | 0.00 | 87 | 1015.6 |
| 20260831230722 | 57 | 217 | 6.0 | 8.0 | 0.00 | 0.00 | 0.00 | 87 | 1015.5 |
| 20260831225222 | 59 | 227 | 6.0 | 8.0 | 0.00 | 0.00 | 0.00 | 86 | 1015.6 |
| 20260831223723 | 59 | 231 | 6.0 | 11.0 | 0.00 | 0.00 | 0.00 | 85 | 1015.5 |